����������;��������(kVARh)
2019-02-25 00:00;3,75
2019-02-25 00:15;2,25
2019-02-25 00:30;4,35
2019-02-25 00:45;3,4
2019-02-25 01:00;3,45
2019-02-25 01:15;1,2
2019-02-25 01:30;3,1
2019-02-25 01:45;3,6
2019-02-25 02:00;2,65
2019-02-25 02:15;2,35
2019-02-25 02:30;3,4
2019-02-25 02:45;3,9
2019-02-25 03:00;4,8
2019-02-25 03:15;4,1
2019-02-25 03:30;4,2
2019-02-25 03:45;4,45
2019-02-25 04:00;4,05
2019-02-25 04:15;3,2
2019-02-25 04:30;4,95
2019-02-25 04:45;4,4
2019-02-25 05:00;3,35
2019-02-25 05:15;3
2019-02-25 05:30;4,65
2019-02-25 05:45;4,55
2019-02-25 06:00;3,7
2019-02-25 06:15;1,6
2019-02-25 06:30;3,4
2019-02-25 06:45;1,45
2019-02-25 07:00;1,25
2019-02-25 07:15;5,95
2019-02-25 07:30;29,7
2019-02-25 07:45;33,3
2019-02-25 08:00;30,4
2019-02-25 08:15;43,85
2019-02-25 08:30;40,3
2019-02-25 08:45;47,4
2019-02-25 09:00;45,3
2019-02-25 09:15;48,4
2019-02-25 09:30;60,4
2019-02-25 09:45;64,4
2019-02-25 10:00;56,5
2019-02-25 10:15;57,7
2019-02-25 10:30;63,05
2019-02-25 10:45;63,15
2019-02-25 11:00;62,6
2019-02-25 11:15;61,75
2019-02-25 11:30;61,2
2019-02-25 11:45;61,65
2019-02-25 12:00;61,7
2019-02-25 12:15;66,9
2019-02-25 12:30;76,85
2019-02-25 12:45;74,4
2019-02-25 13:00;74,45
2019-02-25 13:15;68,7
2019-02-25 13:30;65,5
2019-02-25 13:45;59,25
2019-02-25 14:00;65,05
2019-02-25 14:15;58,65
2019-02-25 14:30;51,35
2019-02-25 14:45;44,6
2019-02-25 15:00;42,9
2019-02-25 15:15;38,85
2019-02-25 15:30;33,35
2019-02-25 15:45;30,05
2019-02-25 16:00;30,95
2019-02-25 16:15;34,45
2019-02-25 16:30;32,7
2019-02-25 16:45;29,75
2019-02-25 17:00;32
2019-02-25 17:15;28,7
2019-02-25 17:30;28,6
2019-02-25 17:45;25,5
2019-02-25 18:00;22,35
2019-02-25 18:15;21,85
2019-02-25 18:30;17,65
2019-02-25 18:45;13,65
2019-02-25 19:00;11,6
2019-02-25 19:15;10,95
2019-02-25 19:30;4,7
2019-02-25 19:45;3,25
2019-02-25 20:00;4,05
2019-02-25 20:15;6,65
2019-02-25 20:30;5,9
2019-02-25 20:45;5,3
2019-02-25 21:00;1,5
2019-02-25 21:15;1,65
2019-02-25 21:30;1,95
2019-02-25 21:45;1,9
2019-02-25 22:00;2
2019-02-25 22:15;2,9
2019-02-25 22:30;3,55
2019-02-25 22:45;3
2019-02-25 23:00;6,55
2019-02-25 23:15;5,6
2019-02-25 23:30;5,75
2019-02-25 23:45;8,45
2019-02-26 00:00;11,6
2019-02-26 00:15;7,85
2019-02-26 00:30;9,85
2019-02-26 00:45;12
2019-02-26 01:00;10,5
2019-02-26 01:15;5,55
2019-02-26 01:30;6,3
2019-02-26 01:45;6,95
2019-02-26 02:00;6,7
2019-02-26 02:15;7,1
2019-02-26 02:30;5,8
2019-02-26 02:45;5,5
2019-02-26 03:00;10,15
2019-02-26 03:15;9,05
2019-02-26 03:30;9,8
2019-02-26 03:45;8,85
2019-02-26 04:00;8,45
2019-02-26 04:15;11,05
2019-02-26 04:30;9,9
2019-02-26 04:45;8,9
2019-02-26 05:00;8,45
2019-02-26 05:15;9,15
2019-02-26 05:30;10,95
2019-02-26 05:45;7,95
2019-02-26 06:00;8,75
2019-02-26 06:15;7,6
2019-02-26 06:30;6,15
2019-02-26 06:45;5,65
2019-02-26 07:00;5,9
2019-02-26 07:15;8,4
2019-02-26 07:30;9
2019-02-26 07:45;7,25
2019-02-26 08:00;5,45
2019-02-26 08:15;5,7
2019-02-26 08:30;6,65
2019-02-26 08:45;6,05
2019-02-26 09:00;9,35
2019-02-26 09:15;11
2019-02-26 09:30;11,45
2019-02-26 09:45;13,1
2019-02-26 10:00;14,4
2019-02-26 10:15;15,7
2019-02-26 10:30;19,65
2019-02-26 10:45;21,95
2019-02-26 11:00;24,1
2019-02-26 11:15;27,2
2019-02-26 11:30;27,3
2019-02-26 11:45;30,3
2019-02-26 12:00;29,7
2019-02-26 12:15;40,25
2019-02-26 12:30;59,05
2019-02-26 12:45;31,45
2019-02-26 13:00;31,15
2019-02-26 13:15;29,1
2019-02-26 13:30;29,5
2019-02-26 13:45;33,15
2019-02-26 14:00;31,1
2019-02-26 14:15;24,5
2019-02-26 14:30;30,35
2019-02-26 14:45;31,3
2019-02-26 15:00;28,8
2019-02-26 15:15;29,5
2019-02-26 15:30;31,1
2019-02-26 15:45;27,5
2019-02-26 16:00;19,1
2019-02-26 16:15;27,3
2019-02-26 16:30;26,9
2019-02-26 16:45;23,65
2019-02-26 17:00;31,4
2019-02-26 17:15;25,35
2019-02-26 17:30;20,3
2019-02-26 17:45;29,5
2019-02-26 18:00;21,05
2019-02-26 18:15;23
2019-02-26 18:30;18,65
2019-02-26 18:45;16,3
2019-02-26 19:00;19,3
2019-02-26 19:15;27,75
2019-02-26 19:30;25,6
2019-02-26 19:45;25,65
2019-02-26 20:00;25,85
2019-02-26 20:15;22,55
2019-02-26 20:30;24
2019-02-26 20:45;23,4
2019-02-26 21:00;21,1
2019-02-26 21:15;22,85
2019-02-26 21:30;21,1
2019-02-26 21:45;17,25
2019-02-26 22:00;15,4
2019-02-26 22:15;14
2019-02-26 22:30;15,6
2019-02-26 22:45;14,55
2019-02-26 23:00;15,8
2019-02-26 23:15;15,1
2019-02-26 23:30;14,6
2019-02-26 23:45;15,05
2019-02-27 00:00;12,6
2019-02-27 00:15;8,05
2019-02-27 00:30;7,05
2019-02-27 00:45;6,5
2019-02-27 01:00;5,7
2019-02-27 01:15;6,55
2019-02-27 01:30;7,35
2019-02-27 01:45;9,55
2019-02-27 02:00;8,55
2019-02-27 02:15;6,65
2019-02-27 02:30;9,7
2019-02-27 02:45;9,05
2019-02-27 03:00;8,55
2019-02-27 03:15;10,15
2019-02-27 03:30;11,9
2019-02-27 03:45;11,85
2019-02-27 04:00;9,1
2019-02-27 04:15;8,45
2019-02-27 04:30;8,85
2019-02-27 04:45;10,2
2019-02-27 05:00;11,65
2019-02-27 05:15;11,95
2019-02-27 05:30;11,5
2019-02-27 05:45;8,8
2019-02-27 06:00;11,05
2019-02-27 06:15;10,85
2019-02-27 06:30;7,75
2019-02-27 06:45;11,15
2019-02-27 07:00;12,45
2019-02-27 07:15;10,95
2019-02-27 07:30;38,55
2019-02-27 07:45;13,7
2019-02-27 08:00;15,8
2019-02-27 08:15;12,75
2019-02-27 08:30;21,95
2019-02-27 08:45;32,85
2019-02-27 09:00;27,8
2019-02-27 09:15;33,35
2019-02-27 09:30;34,05
2019-02-27 09:45;35,1
2019-02-27 10:00;55,65
2019-02-27 10:15;77,1
2019-02-27 10:30;85,7
2019-02-27 10:45;89,65
2019-02-27 11:00;99,3
2019-02-27 11:15;98,4
2019-02-27 11:30;99,95
2019-02-27 11:45;98,25
2019-02-27 12:00;95,6
2019-02-27 12:15;98,75
2019-02-27 12:30;98,9
2019-02-27 12:45;91,9
2019-02-27 13:00;96,2
2019-02-27 13:15;91,4
2019-02-27 13:30;92,15
2019-02-27 13:45;92,55
2019-02-27 14:00;92,5
2019-02-27 14:15;96,4
2019-02-27 14:30;93,2
2019-02-27 14:45;91
2019-02-27 15:00;97,3
2019-02-27 15:15;91
2019-02-27 15:30;95,9
2019-02-27 15:45;89,75
2019-02-27 16:00;86,75
2019-02-27 16:15;95,6
2019-02-27 16:30;88,9
2019-02-27 16:45;82,7
2019-02-27 17:00;79,75
2019-02-27 17:15;76,05
2019-02-27 17:30;66,7
2019-02-27 17:45;71,35
2019-02-27 18:00;63,6
2019-02-27 18:15;65,3
2019-02-27 18:30;63,85
2019-02-27 18:45;59,6
2019-02-27 19:00;57,05
2019-02-27 19:15;55,65
2019-02-27 19:30;53,7
2019-02-27 19:45;53,55
2019-02-27 20:00;47,45
2019-02-27 20:15;42,05
2019-02-27 20:30;38,35
2019-02-27 20:45;35,95
2019-02-27 21:00;36,35
2019-02-27 21:15;32,3
2019-02-27 21:30;27,65
2019-02-27 21:45;22,85
2019-02-27 22:00;25,7
2019-02-27 22:15;30,1
2019-02-27 22:30;29,7
2019-02-27 22:45;27,85
2019-02-27 23:00;30,35
2019-02-27 23:15;28,85
2019-02-27 23:30;22,45
2019-02-27 23:45;19,05
2019-02-28 00:00;18,85
2019-02-28 00:15;18,15
2019-02-28 00:30;18,5
2019-02-28 00:45;17,55
2019-02-28 01:00;12,7
2019-02-28 01:15;10,35
2019-02-28 01:30;10,55
2019-02-28 01:45;11,45
2019-02-28 02:00;10,9
2019-02-28 02:15;10,05
2019-02-28 02:30;9,8
2019-02-28 02:45;10,85
2019-02-28 03:00;11,1
2019-02-28 03:15;9,65
2019-02-28 03:30;11,8
2019-02-28 03:45;10,3
2019-02-28 04:00;15,2
2019-02-28 04:15;17
2019-02-28 04:30;16,95
2019-02-28 04:45;17,4
2019-02-28 05:00;18,15
2019-02-28 05:15;20,25
2019-02-28 05:30;20,6
2019-02-28 05:45;20,7
2019-02-28 06:00;25,5
2019-02-28 06:15;21,65
2019-02-28 06:30;20,7
2019-02-28 06:45;21,5
2019-02-28 07:00;24,85
2019-02-28 07:15;26
2019-02-28 07:30;51,9
2019-02-28 07:45;38
2019-02-28 08:00;35,8
2019-02-28 08:15;32
2019-02-28 08:30;35,45
2019-02-28 08:45;48,1
2019-02-28 09:00;43,85
2019-02-28 09:15;48,05
2019-02-28 09:30;56,1
2019-02-28 09:45;54,75
2019-02-28 10:00;61,25
2019-02-28 10:15;72,8
2019-02-28 10:30;70,8
2019-02-28 10:45;72,8
2019-02-28 11:00;79,7
2019-02-28 11:15;81,85
2019-02-28 11:30;87,45
2019-02-28 11:45;83,5
2019-02-28 12:00;83,15
2019-02-28 12:15;83,75
2019-02-28 12:30;83,7
2019-02-28 12:45;80,3
2019-02-28 13:00;79,4
2019-02-28 13:15;79
2019-02-28 13:30;74,2
2019-02-28 13:45;80,05
2019-02-28 14:00;71,35
2019-02-28 14:15;66,3
2019-02-28 14:30;75,4
2019-02-28 14:45;69,45
2019-02-28 15:00;66,7
2019-02-28 15:15;72,85
2019-02-28 15:30;64,3
2019-02-28 15:45;62,8
2019-02-28 16:00;58,45
2019-02-28 16:15;62,05
2019-02-28 16:30;60,25
2019-02-28 16:45;56,95
2019-02-28 17:00;57,55
2019-02-28 17:15;47,7
2019-02-28 17:30;44,25
2019-02-28 17:45;44,5
2019-02-28 18:00;40,6
2019-02-28 18:15;34,35
2019-02-28 18:30;33,1
2019-02-28 18:45;26,45
2019-02-28 19:00;25,6
2019-02-28 19:15;27,9
2019-02-28 19:30;29,1
2019-02-28 19:45;26,9
2019-02-28 20:00;25,4
2019-02-28 20:15;24,3
2019-02-28 20:30;26,9
2019-02-28 20:45;25,55
2019-02-28 21:00;25,15
2019-02-28 21:15;26,9
2019-02-28 21:30;29,7
2019-02-28 21:45;25,35
2019-02-28 22:00;23,9
2019-02-28 22:15;20,8
2019-02-28 22:30;13,9
2019-02-28 22:45;13,35
2019-02-28 23:00;15,7
2019-02-28 23:15;15,5
2019-02-28 23:30;10,5
2019-02-28 23:45;11,95
2019-03-01 00:00;15,85
2019-03-01 00:15;17,2
2019-03-01 00:30;17
2019-03-01 00:45;19,4
2019-03-01 01:00;21
2019-03-01 01:15;22,5
2019-03-01 01:30;16,2
2019-03-01 01:45;15,65
2019-03-01 02:00;18,1
2019-03-01 02:15;17,5
2019-03-01 02:30;19,25
2019-03-01 02:45;19,5
2019-03-01 03:00;19,8
2019-03-01 03:15;18,15
2019-03-01 03:30;17,55
2019-03-01 03:45;17,6
2019-03-01 04:00;20,95
2019-03-01 04:15;17,35
2019-03-01 04:30;19,05
2019-03-01 04:45;20,65
2019-03-01 05:00;21,3
2019-03-01 05:15;18,8
2019-03-01 05:30;19,5
2019-03-01 05:45;19,9
2019-03-01 06:00;19,2
2019-03-01 06:15;20,2
2019-03-01 06:30;18,65
2019-03-01 06:45;18,1
2019-03-01 07:00;19,3
2019-03-01 07:15;18,35
2019-03-01 07:30;47,1
2019-03-01 07:45;22,35
2019-03-01 08:00;25,55
2019-03-01 08:15;27,75
2019-03-01 08:30;36,1
2019-03-01 08:45;39,95
2019-03-01 09:00;38,1
2019-03-01 09:15;47,5
2019-03-01 09:30;52,65
2019-03-01 09:45;51,6
2019-03-01 10:00;52,75
2019-03-01 10:15;60,75
2019-03-01 10:30;60,95
2019-03-01 10:45;56,5
2019-03-01 11:00;62,9
2019-03-01 11:15;70,6
2019-03-01 11:30;68,6
2019-03-01 11:45;66
2019-03-01 12:00;73,7
2019-03-01 12:15;72,35
2019-03-01 12:30;76,25
2019-03-01 12:45;69
2019-03-01 13:00;72,2
2019-03-01 13:15;76,6
2019-03-01 13:30;67,3
2019-03-01 13:45;70,4
2019-03-01 14:00;68,8
2019-03-01 14:15;65,4
2019-03-01 14:30;66,5
2019-03-01 14:45;64,1
2019-03-01 15:00;69
2019-03-01 15:15;64,6
2019-03-01 15:30;58,85
2019-03-01 15:45;60,75
2019-03-01 16:00;49,15
2019-03-01 16:15;52,3
2019-03-01 16:30;49,95
2019-03-01 16:45;52,4
2019-03-01 17:00;41,35
2019-03-01 17:15;45,85
2019-03-01 17:30;40,3
2019-03-01 17:45;41,9
2019-03-01 18:00;34,3
2019-03-01 18:15;32,5
2019-03-01 18:30;30,95
2019-03-01 18:45;25,9
2019-03-01 19:00;26,1
2019-03-01 19:15;26,95
2019-03-01 19:30;27,7
2019-03-01 19:45;26,1
2019-03-01 20:00;14,45
2019-03-01 20:15;14,35
2019-03-01 20:30;12,9
2019-03-01 20:45;11,05
2019-03-01 21:00;10,35
2019-03-01 21:15;9,6
2019-03-01 21:30;8,55
2019-03-01 21:45;6
2019-03-01 22:00;2,45
2019-03-01 22:15;2,65
2019-03-01 22:30;2,3
2019-03-01 22:45;4,75
2019-03-01 23:00;6,4
2019-03-01 23:15;2,8
2019-03-01 23:30;3,6
2019-03-01 23:45;3,8
2019-03-02 00:00;3
2019-03-02 00:15;2
2019-03-02 00:30;2,55
2019-03-02 00:45;2,75
2019-03-02 01:00;1,7
2019-03-02 01:15;2,65
2019-03-02 01:30;4,2
2019-03-02 01:45;4,25
2019-03-02 02:00;3,2
2019-03-02 02:15;2,95
2019-03-02 02:30;2,45
2019-03-02 02:45;1,95
2019-03-02 03:00;2,95
2019-03-02 03:15;5,15
2019-03-02 03:30;4,85
2019-03-02 03:45;3,9
2019-03-02 04:00;4,15
2019-03-02 04:15;4,2
2019-03-02 04:30;6,95
2019-03-02 04:45;4,15
2019-03-02 05:00;5,45
2019-03-02 05:15;5,05
2019-03-02 05:30;3,95
2019-03-02 05:45;3,7
2019-03-02 06:00;2,7
2019-03-02 06:15;3,1
2019-03-02 06:30;2,35
2019-03-02 06:45;7,7
2019-03-02 07:00;4,1
2019-03-02 07:15;10,25
2019-03-02 07:30;8,4
2019-03-02 07:45;7,1
2019-03-02 08:00;7,15
2019-03-02 08:15;7,1
2019-03-02 08:30;5,75
2019-03-02 08:45;5,8
2019-03-02 09:00;4,15
2019-03-02 09:15;5,9
2019-03-02 09:30;9,85
2019-03-02 09:45;10,2
2019-03-02 10:00;8,8
2019-03-02 10:15;8,2
2019-03-02 10:30;9,8
2019-03-02 10:45;9,8
2019-03-02 11:00;8,45
2019-03-02 11:15;7,7
2019-03-02 11:30;9
2019-03-02 11:45;9,25
2019-03-02 12:00;8,75
2019-03-02 12:15;9,75
2019-03-02 12:30;13,3
2019-03-02 12:45;13,9
2019-03-02 13:00;13,75
2019-03-02 13:15;14,2
2019-03-02 13:30;13,15
2019-03-02 13:45;13,25
2019-03-02 14:00;12,1
2019-03-02 14:15;13,1
2019-03-02 14:30;15
2019-03-02 14:45;13,95
2019-03-02 15:00;15,7
2019-03-02 15:15;15,95
2019-03-02 15:30;14,85
2019-03-02 15:45;15,7
2019-03-02 16:00;15,65
2019-03-02 16:15;15,75
2019-03-02 16:30;16,25
2019-03-02 16:45;10,65
2019-03-02 17:00;10
2019-03-02 17:15;16,3
2019-03-02 17:30;17,9
2019-03-02 17:45;17,85
2019-03-02 18:00;16,65
2019-03-02 18:15;15,8
2019-03-02 18:30;13,8
2019-03-02 18:45;12,7
2019-03-02 19:00;14
2019-03-02 19:15;13,1
2019-03-02 19:30;11,1
2019-03-02 19:45;11,2
2019-03-02 20:00;11,45
2019-03-02 20:15;9,95
2019-03-02 20:30;11,55
2019-03-02 20:45;10,1
2019-03-02 21:00;8,35
2019-03-02 21:15;3,6
2019-03-02 21:30;4,45
2019-03-02 21:45;5,05
2019-03-02 22:00;5,45
2019-03-02 22:15;4,35
2019-03-02 22:30;5,2
2019-03-02 22:45;7,8
2019-03-02 23:00;9,9
2019-03-02 23:15;7,9
2019-03-02 23:30;11,5
2019-03-02 23:45;12,75
2019-03-03 00:00;6,4
2019-03-03 00:15;5,6
2019-03-03 00:30;3,1
2019-03-03 00:45;1,8
2019-03-03 01:00;2,25
2019-03-03 01:15;2,9
2019-03-03 01:30;2,45
2019-03-03 01:45;3,75
2019-03-03 02:00;3,45
2019-03-03 02:15;3,3
2019-03-03 02:30;4,75
2019-03-03 02:45;5,05
2019-03-03 03:00;4,65
2019-03-03 03:15;1,95
2019-03-03 03:30;1,45
2019-03-03 03:45;2,75
2019-03-03 04:00;4,1
2019-03-03 04:15;4,35
2019-03-03 04:30;4,55
2019-03-03 04:45;2,8
2019-03-03 05:00;3,45
2019-03-03 05:15;3,7
2019-03-03 05:30;3,45
2019-03-03 05:45;1,1
2019-03-03 06:00;0,8
2019-03-03 06:15;0,85
2019-03-03 06:30;1,3
2019-03-03 06:45;1,1
2019-03-03 07:00;1,45
2019-03-03 07:15;0,6
2019-03-03 07:30;1,4
2019-03-03 07:45;1,9
2019-03-03 08:00;2,2
2019-03-03 08:15;9,9
2019-03-03 08:30;9,55
2019-03-03 08:45;9,1
2019-03-03 09:00;8,7
2019-03-03 09:15;7
2019-03-03 09:30;5,9
2019-03-03 09:45;6,15
2019-03-03 10:00;4,6
2019-03-03 10:15;3,6
2019-03-03 10:30;5,1
2019-03-03 10:45;8,45
2019-03-03 11:00;8,95
2019-03-03 11:15;6,7
2019-03-03 11:30;5,65
2019-03-03 11:45;6,4
2019-03-03 12:00;5,2
2019-03-03 12:15;5,35
2019-03-03 12:30;3,45
2019-03-03 12:45;4,55
2019-03-03 13:00;10,35
2019-03-03 13:15;10,4
2019-03-03 13:30;4,55
2019-03-03 13:45;3,35
2019-03-03 14:00;4,9
2019-03-03 14:15;7,15
2019-03-03 14:30;9,45
2019-03-03 14:45;11,6
2019-03-03 15:00;11,75
2019-03-03 15:15;11,55
2019-03-03 15:30;12,1
2019-03-03 15:45;11,3
2019-03-03 16:00;11,45
2019-03-03 16:15;11,2
2019-03-03 16:30;9,95
2019-03-03 16:45;10,15
2019-03-03 17:00;11,15
2019-03-03 17:15;11,65
2019-03-03 17:30;10,15
2019-03-03 17:45;9,05
2019-03-03 18:00;8,7
2019-03-03 18:15;5,3
2019-03-03 18:30;12,05
2019-03-03 18:45;15,7
2019-03-03 19:00;13,2
2019-03-03 19:15;10,7
2019-03-03 19:30;9,7
2019-03-03 19:45;8,65
2019-03-03 20:00;8,1
2019-03-03 20:15;7,55
2019-03-03 20:30;5,7
2019-03-03 20:45;5,2
2019-03-03 21:00;5,8
2019-03-03 21:15;5,35
2019-03-03 21:30;6,95
2019-03-03 21:45;5,5
2019-03-03 22:00;5,4
2019-03-03 22:15;4
2019-03-03 22:30;0,85
2019-03-03 22:45;0,75
2019-03-03 23:00;7,05
2019-03-03 23:15;7,5
2019-03-03 23:30;9,75
2019-03-03 23:45;10,75

